Time,TemperatureF,DewpointF,PressureIn,WindDirection,WindDirectionDegrees,WindSpeedMPH,WindSpeedGustMPH,Humidity,HourlyPrecipIn,Conditions,Clouds,dailyrainin,SoftwareType,DateUTC
2013-02-09 00:01:00,31.0,24.0,30.36,ENE,72,4.0,8.0,75,0.00,,,0.00,,2013-02-09 06:01:00,
2013-02-09 00:11:00,31.0,24.0,30.36,ENE,72,4.0,8.0,75,0.00,,,0.00,,2013-02-09 06:11:00,
2013-02-09 00:21:00,31.0,24.0,30.36,ENE,71,3.0,7.0,75,0.00,,,0.00,,2013-02-09 06:21:00,
2013-02-09 00:31:00,31.0,24.0,30.36,ENE,71,3.0,7.0,75,0.00,,,0.00,,2013-02-09 06:31:00,
2013-02-09 00:42:00,31.0,24.0,30.36,ENE,71,3.0,7.0,75,0.00,,,0.00,,2013-02-09 06:42:00,
2013-02-09 00:52:00,31.0,24.0,30.36,East,84,3.0,6.0,75,0.00,,,0.00,,2013-02-09 06:52:00,
2013-02-09 01:01:00,31.0,24.0,30.36,East,84,3.0,6.0,75,0.00,,,0.00,,2013-02-09 07:01:00,
2013-02-09 01:11:00,31.0,24.0,30.36,East,84,3.0,6.0,75,0.00,,,0.00,,2013-02-09 07:11:00,
2013-02-09 01:21:00,31.0,24.0,30.36,ENE,69,5.0,7.0,75,0.00,,,0.00,,2013-02-09 07:21:00,
2013-02-09 01:31:00,31.0,24.0,30.36,ENE,69,5.0,7.0,75,0.00,,,0.00,,2013-02-09 07:31:00,
2013-02-09 01:42:00,31.0,24.0,30.36,ENE,69,5.0,7.0,75,0.00,,,0.00,,2013-02-09 07:42:00,
2013-02-09 01:52:00,31.0,24.0,30.35,East,79,4.0,8.0,75,0.00,,,0.00,,2013-02-09 07:52:00,
2013-02-09 02:01:00,31.0,24.0,30.35,East,79,4.0,8.0,75,0.00,,,0.00,,2013-02-09 08:01:00,
2013-02-09 02:11:00,31.0,24.0,30.35,East,79,4.0,8.0,75,0.00,,,0.00,,2013-02-09 08:11:00,
2013-02-09 02:21:00,31.0,24.0,30.35,ESE,111,1.0,10.0,75,0.00,,,0.00,,2013-02-09 08:21:00,
2013-02-09 02:31:00,31.0,24.0,30.35,ESE,111,1.0,10.0,75,0.00,,,0.00,,2013-02-09 08:31:00,
2013-02-09 02:42:00,31.0,24.0,30.35,ESE,111,1.0,10.0,75,0.00,,,0.00,,2013-02-09 08:42:00,
2013-02-09 02:52:00,31.0,25.0,30.36,SSE,148,3.0,6.0,77,0.00,,,0.00,,2013-02-09 08:52:00,
2013-02-09 03:03:00,31.0,25.0,30.36,SSE,148,3.0,6.0,77,0.00,,,0.00,,2013-02-09 09:03:00,
2013-02-09 03:11:00,31.0,25.0,30.36,SSE,148,3.0,6.0,77,0.00,,,0.00,,2013-02-09 09:11:00,
2013-02-09 03:21:00,31.0,24.0,30.35,ESE,119,3.0,7.0,76,0.00,,,0.00,,2013-02-09 09:21:00,
2013-02-09 03:31:00,31.0,24.0,30.35,ESE,119,3.0,7.0,76,0.00,,,0.00,,2013-02-09 09:31:00,
2013-02-09 03:42:00,31.0,24.0,30.35,ESE,119,3.0,7.0,76,0.00,,,0.00,,2013-02-09 09:42:00,
2013-02-09 03:52:00,30.0,23.0,30.35,ESE,112,2.0,7.0,76,0.00,,,0.00,,2013-02-09 09:52:00,
2013-02-09 04:01:00,30.0,23.0,30.35,ESE,112,2.0,7.0,76,0.00,,,0.00,,2013-02-09 10:01:00,
2013-02-09 04:11:00,30.0,23.0,30.35,ESE,112,2.0,7.0,76,0.00,,,0.00,,2013-02-09 10:11:00,
2013-02-09 04:21:00,30.0,23.0,30.36,SE,128,5.0,9.0,76,0.00,,,0.00,,2013-02-09 10:21:00,
2013-02-09 04:31:00,30.0,23.0,30.36,SE,128,5.0,9.0,76,0.00,,,0.00,,2013-02-09 10:31:00,
2013-02-09 04:42:00,30.0,23.0,30.36,SE,128,5.0,9.0,76,0.00,,,0.00,,2013-02-09 10:42:00,
2013-02-09 04:52:00,30.0,24.0,30.35,ESE,114,2.0,5.0,77,0.00,,,0.00,,2013-02-09 10:52:00,
2013-02-09 05:01:00,30.0,24.0,30.35,ESE,114,2.0,5.0,77,0.00,,,0.00,,2013-02-09 11:01:00,
2013-02-09 05:11:00,30.0,24.0,30.35,ESE,114,2.0,5.0,77,0.00,,,0.00,,2013-02-09 11:11:00,
2013-02-09 05:22:00,30.0,24.0,30.37,ESE,112,5.0,11.0,77,0.00,,,0.00,,2013-02-09 11:22:00,
2013-02-09 05:31:00,30.0,24.0,30.37,ESE,112,5.0,11.0,77,0.00,,,0.00,,2013-02-09 11:31:00,
2013-02-09 05:42:00,30.0,24.0,30.37,ESE,112,5.0,11.0,77,0.00,,,0.00,,2013-02-09 11:42:00,
2013-02-09 05:52:00,30.0,24.0,30.36,SE,127,4.0,8.0,77,0.00,,,0.00,,2013-02-09 11:52:00,
2013-02-09 06:02:00,30.0,24.0,30.36,SE,127,4.0,8.0,77,0.00,,,0.00,,2013-02-09 12:02:00,
2013-02-09 06:11:00,30.0,24.0,30.36,SE,127,4.0,8.0,77,0.00,,,0.00,,2013-02-09 12:11:00,
2013-02-09 06:21:00,30.0,24.0,30.35,ESE,120,4.0,9.0,77,0.00,,,0.00,,2013-02-09 12:21:00,
2013-02-09 06:32:00,30.0,24.0,30.35,ESE,120,4.0,9.0,77,0.00,,,0.00,,2013-02-09 12:32:00,
2013-02-09 06:42:00,30.0,24.0,30.35,ESE,120,4.0,9.0,77,0.00,,,0.00,,2013-02-09 12:42:00,
2013-02-09 06:52:00,30.0,24.0,30.35,ESE,110,6.0,10.0,78,0.00,,,0.00,,2013-02-09 12:52:00,
2013-02-09 07:02:00,30.0,24.0,30.35,ESE,110,6.0,10.0,78,0.00,,,0.00,,2013-02-09 13:02:00,
2013-02-09 07:11:00,30.0,24.0,30.35,ESE,110,6.0,10.0,78,0.00,,,0.00,,2013-02-09 13:11:00,
2013-02-09 07:21:00,30.0,24.0,30.34,ESE,116,5.0,10.0,78,0.00,,,0.00,,2013-02-09 13:21:00,
2013-02-09 07:32:00,30.0,24.0,30.34,ESE,116,5.0,10.0,78,0.00,,,0.00,,2013-02-09 13:32:00,
2013-02-09 07:42:00,30.0,24.0,30.34,ESE,116,5.0,10.0,78,0.00,,,0.00,,2013-02-09 13:42:00,
2013-02-09 07:52:00,30.0,24.0,30.34,ESE,120,5.0,10.0,78,0.00,,,0.00,,2013-02-09 13:52:00,
2013-02-09 08:01:00,30.0,24.0,30.34,ESE,120,5.0,10.0,78,0.00,,,0.00,,2013-02-09 14:01:00,
2013-02-09 08:11:00,30.0,24.0,30.34,ESE,120,5.0,10.0,78,0.00,,,0.00,,2013-02-09 14:11:00,
2013-02-09 08:21:00,30.0,24.0,30.35,SE,133,7.0,12.0,77,0.00,,,0.00,,2013-02-09 14:21:00,
2013-02-09 08:31:00,30.0,24.0,30.35,SE,133,7.0,12.0,77,0.00,,,0.00,,2013-02-09 14:31:00,
2013-02-09 08:42:00,30.0,24.0,30.35,SE,133,7.0,12.0,77,0.00,,,0.00,,2013-02-09 14:42:00,
2013-02-09 08:52:00,30.0,24.0,30.35,ESE,102,7.0,15.0,77,0.00,,,0.00,,2013-02-09 14:52:00,
2013-02-09 09:01:00,30.0,24.0,30.35,ESE,102,7.0,15.0,77,0.00,,,0.00,,2013-02-09 15:01:00,
2013-02-09 09:11:00,30.0,24.0,30.35,ESE,102,7.0,15.0,77,0.00,,,0.00,,2013-02-09 15:11:00,
2013-02-09 09:21:00,31.0,25.0,30.35,SE,144,3.0,9.0,78,0.00,,,0.00,,2013-02-09 15:21:00,
2013-02-09 09:32:00,31.0,25.0,30.35,SE,144,3.0,9.0,78,0.00,,,0.00,,2013-02-09 15:32:00,
2013-02-09 09:42:00,31.0,25.0,30.35,SE,144,3.0,9.0,78,0.00,,,0.00,,2013-02-09 15:42:00,
2013-02-09 09:52:00,31.0,25.0,30.35,SSE,150,5.0,8.0,77,0.00,,,0.00,,2013-02-09 15:52:00,
2013-02-09 10:01:00,31.0,25.0,30.35,SSE,150,5.0,8.0,77,0.00,,,0.00,,2013-02-09 16:01:00,
2013-02-09 10:11:00,31.0,25.0,30.35,SSE,150,5.0,8.0,77,0.00,,,0.00,,2013-02-09 16:11:00,
2013-02-09 10:22:00,31.0,24.0,30.35,SE,133,4.0,14.0,76,0.00,,,0.00,,2013-02-09 16:22:00,
2013-02-09 10:31:00,31.0,24.0,30.35,SE,133,4.0,14.0,76,0.00,,,0.00,,2013-02-09 16:31:00,
2013-02-09 10:42:00,31.0,24.0,30.35,SE,133,4.0,14.0,76,0.00,,,0.00,,2013-02-09 16:42:00,
2013-02-09 10:52:00,32.0,25.0,30.35,SE,133,6.0,10.0,76,0.00,,,0.00,,2013-02-09 16:52:00,
2013-02-09 11:01:00,32.0,25.0,30.35,SE,133,6.0,10.0,76,0.00,,,0.00,,2013-02-09 17:01:00,
2013-02-09 11:11:00,32.0,25.0,30.35,SE,133,6.0,10.0,76,0.00,,,0.00,,2013-02-09 17:11:00,
2013-02-09 11:21:00,33.0,26.0,30.33,SSE,151,6.0,12.0,75,0.00,,,0.00,,2013-02-09 17:21:00,
2013-02-09 11:32:00,33.0,26.0,30.33,SSE,151,6.0,12.0,75,0.00,,,0.00,,2013-02-09 17:32:00,
2013-02-09 11:42:00,33.0,26.0,30.33,SSE,151,6.0,12.0,75,0.00,,,0.00,,2013-02-09 17:42:00,
2013-02-09 11:52:00,33.0,26.0,30.32,SE,143,5.0,15.0,74,0.00,,,0.00,,2013-02-09 17:52:00,
2013-02-09 12:02:00,33.0,26.0,30.32,SE,143,5.0,15.0,74,0.00,,,0.00,,2013-02-09 18:02:00,
2013-02-09 12:12:00,33.0,26.0,30.32,SE,143,5.0,15.0,74,0.00,,,0.00,,2013-02-09 18:12:00,
2013-02-09 12:23:00,35.0,27.0,30.30,SSE,158,6.0,12.0,73,0.00,,,0.00,,2013-02-09 18:23:00,
2013-02-09 12:32:00,35.0,27.0,30.30,SSE,158,6.0,12.0,73,0.00,,,0.00,,2013-02-09 18:32:00,
2013-02-09 12:42:00,35.0,27.0,30.30,SSE,158,6.0,12.0,73,0.00,,,0.00,,2013-02-09 18:42:00,
2013-02-09 12:52:00,36.0,28.0,30.29,SE,132,4.0,11.0,72,0.00,,,0.00,,2013-02-09 18:52:00,
2013-02-09 13:01:00,36.0,28.0,30.29,SE,132,4.0,11.0,72,0.00,,,0.00,,2013-02-09 19:01:00,
2013-02-09 13:11:00,36.0,28.0,30.29,SE,132,4.0,11.0,72,0.00,,,0.00,,2013-02-09 19:11:00,
2013-02-09 13:22:00,37.0,28.0,30.28,ESE,119,5.0,11.0,69,0.00,,,0.00,,2013-02-09 19:22:00,
2013-02-09 13:31:00,37.0,28.0,30.28,ESE,119,5.0,11.0,69,0.00,,,0.00,,2013-02-09 19:31:00,
2013-02-09 13:42:00,37.0,28.0,30.28,ESE,119,5.0,11.0,69,0.00,,,0.00,,2013-02-09 19:42:00,
2013-02-09 13:52:00,38.0,28.0,30.26,South,185,5.0,10.0,68,0.00,,,0.00,,2013-02-09 19:52:00,
2013-02-09 14:01:00,38.0,28.0,30.26,South,185,5.0,10.0,68,0.00,,,0.00,,2013-02-09 20:01:00,
2013-02-09 14:11:00,38.0,28.0,30.26,South,185,5.0,10.0,68,0.00,,,0.00,,2013-02-09 20:11:00,
2013-02-09 14:21:00,39.0,29.0,30.24,SSE,160,5.0,8.0,67,0.00,,,0.00,,2013-02-09 20:21:00,
2013-02-09 14:31:00,39.0,29.0,30.24,SSE,160,5.0,8.0,67,0.00,,,0.00,,2013-02-09 20:31:00,
2013-02-09 14:42:00,39.0,29.0,30.24,SSE,160,5.0,8.0,67,0.00,,,0.00,,2013-02-09 20:42:00,
2013-02-09 14:52:00,41.0,31.0,30.22,ESE,112,6.0,13.0,67,0.00,,,0.00,,2013-02-09 20:52:00,
2013-02-09 15:02:00,41.0,31.0,30.22,ESE,112,6.0,13.0,67,0.00,,,0.00,,2013-02-09 21:02:00,
2013-02-09 15:11:00,41.0,31.0,30.22,ESE,112,6.0,13.0,67,0.00,,,0.00,,2013-02-09 21:11:00,
2013-02-09 15:21:00,41.0,30.0,30.20,SE,140,8.0,15.0,65,0.00,,,0.00,,2013-02-09 21:21:00,
2013-02-09 15:31:00,41.0,30.0,30.20,SE,140,8.0,15.0,65,0.00,,,0.00,,2013-02-09 21:31:00,
2013-02-09 15:42:00,41.0,30.0,30.20,SE,140,8.0,15.0,65,0.00,,,0.00,,2013-02-09 21:42:00,
2013-02-09 15:52:00,42.0,31.0,30.19,SE,133,6.0,15.0,65,0.00,,,0.00,,2013-02-09 21:52:00,
2013-02-09 16:01:00,42.0,31.0,30.19,SE,133,6.0,15.0,65,0.00,,,0.00,,2013-02-09 22:01:00,
2013-02-09 16:11:00,42.0,31.0,30.19,SE,133,6.0,15.0,65,0.00,,,0.00,,2013-02-09 22:11:00,
2013-02-09 16:21:00,41.0,30.0,30.18,SSE,147,5.0,11.0,65,0.00,,,0.00,,2013-02-09 22:21:00,
2013-02-09 16:32:00,41.0,30.0,30.18,SSE,147,5.0,11.0,65,0.00,,,0.00,,2013-02-09 22:32:00,
2013-02-09 16:42:00,41.0,30.0,30.18,SSE,147,5.0,11.0,65,0.00,,,0.00,,2013-02-09 22:42:00,
2013-02-09 16:52:00,41.0,30.0,30.17,SE,141,5.0,11.0,65,0.00,,,0.00,,2013-02-09 22:52:00,
2013-02-09 17:01:00,41.0,30.0,30.17,SE,141,5.0,11.0,65,0.00,,,0.00,,2013-02-09 23:01:00,
2013-02-09 17:11:00,41.0,30.0,30.17,SE,141,5.0,11.0,65,0.00,,,0.00,,2013-02-09 23:11:00,
2013-02-09 17:21:00,39.0,30.0,30.16,ESE,121,5.0,10.0,71,0.00,,,0.00,,2013-02-09 23:21:00,
2013-02-09 17:31:00,39.0,30.0,30.16,ESE,121,5.0,10.0,71,0.00,,,0.00,,2013-02-09 23:31:00,
2013-02-09 17:42:00,39.0,30.0,30.16,ESE,121,5.0,10.0,71,0.00,,,0.00,,2013-02-09 23:42:00,
2013-02-09 17:52:00,38.0,31.0,30.16,ESE,119,3.0,7.0,75,0.00,,,0.00,,2013-02-09 23:52:00,
2013-02-09 18:02:00,38.0,31.0,30.16,ESE,119,3.0,7.0,75,0.00,,,0.00,,2013-02-10 00:02:00,
2013-02-09 18:12:00,38.0,31.0,30.16,ESE,119,3.0,7.0,75,0.00,,,0.00,,2013-02-10 00:12:00,
2013-02-09 18:21:00,37.0,30.0,30.14,SE,130,5.0,8.0,77,0.00,,,0.00,,2013-02-10 00:21:00,
2013-02-09 18:32:00,37.0,30.0,30.14,SE,130,5.0,8.0,77,0.00,,,0.00,,2013-02-10 00:32:00,
2013-02-09 18:42:00,37.0,30.0,30.14,SE,130,5.0,8.0,77,0.00,,,0.00,,2013-02-10 00:42:00,
2013-02-09 18:52:00,37.0,30.0,30.13,SE,146,4.0,10.0,77,0.00,,,0.00,,2013-02-10 00:52:00,
2013-02-09 19:01:00,37.0,30.0,30.13,SE,146,4.0,10.0,77,0.00,,,0.00,,2013-02-10 01:01:00,
2013-02-09 19:12:00,37.0,30.0,30.13,SE,146,4.0,10.0,77,0.00,,,0.00,,2013-02-10 01:12:00,
2013-02-09 19:21:00,38.0,31.0,30.13,ESE,122,6.0,11.0,75,0.00,,,0.00,,2013-02-10 01:21:00,
2013-02-09 19:31:00,38.0,31.0,30.13,ESE,122,6.0,11.0,75,0.00,,,0.00,,2013-02-10 01:31:00,
2013-02-09 19:42:00,38.0,31.0,30.13,ESE,122,6.0,11.0,75,0.00,,,0.00,,2013-02-10 01:42:00,
2013-02-09 19:52:00,38.0,31.0,30.13,ESE,122,6.0,11.0,75,0.00,,,0.00,,2013-02-10 01:52:00,
2013-02-09 20:01:00,38.0,31.0,30.13,ESE,122,6.0,11.0,75,0.00,,,0.00,,2013-02-10 02:01:00,
2013-02-09 20:22:00,37.0,30.0,30.12,SE,126,5.0,10.0,76,0.00,,,0.00,,2013-02-10 02:22:00,
2013-02-09 20:32:00,37.0,30.0,30.12,SE,126,5.0,10.0,76,0.00,,,0.00,,2013-02-10 02:32:00,
2013-02-09 20:42:00,37.0,30.0,30.12,SE,126,5.0,10.0,76,0.00,,,0.00,,2013-02-10 02:42:00,
2013-02-09 20:52:00,37.0,30.0,30.12,ESE,120,6.0,11.0,77,0.00,,,0.00,,2013-02-10 02:52:00,
2013-02-09 21:01:00,37.0,30.0,30.12,ESE,120,6.0,11.0,77,0.00,,,0.00,,2013-02-10 03:01:00,
2013-02-09 21:11:00,37.0,30.0,30.12,ESE,120,6.0,11.0,77,0.00,,,0.00,,2013-02-10 03:11:00,
2013-02-09 21:21:00,37.0,30.0,30.11,SSE,150,4.0,9.0,77,0.00,,,0.00,,2013-02-10 03:21:00,
2013-02-09 21:32:00,37.0,30.0,30.11,SSE,150,4.0,9.0,77,0.00,,,0.00,,2013-02-10 03:32:00,
2013-02-09 21:42:00,37.0,30.0,30.11,SSE,150,4.0,9.0,77,0.00,,,0.00,,2013-02-10 03:42:00,
2013-02-09 21:52:00,37.0,31.0,30.10,SE,143,4.0,11.0,78,0.00,,,0.00,,2013-02-10 03:52:00,
2013-02-09 22:01:00,37.0,31.0,30.10,SE,143,4.0,11.0,78,0.00,,,0.00,,2013-02-10 04:01:00,
2013-02-09 22:11:00,37.0,31.0,30.10,SE,143,4.0,11.0,78,0.00,,,0.00,,2013-02-10 04:11:00,
2013-02-09 22:21:00,36.0,30.0,30.09,SE,140,3.0,8.0,78,0.00,,,0.00,,2013-02-10 04:21:00,
2013-02-09 22:32:00,36.0,30.0,30.09,SE,140,3.0,8.0,78,0.00,,,0.00,,2013-02-10 04:32:00,
2013-02-09 22:42:00,36.0,30.0,30.09,SE,140,3.0,8.0,78,0.00,,,0.00,,2013-02-10 04:42:00,
2013-02-09 22:52:00,37.0,30.0,30.07,ESE,121,7.0,12.0,77,0.00,,,0.00,,2013-02-10 04:52:00,
2013-02-09 23:01:00,37.0,30.0,30.07,ESE,121,7.0,12.0,77,0.00,,,0.00,,2013-02-10 05:01:00,
2013-02-09 23:11:00,37.0,30.0,30.07,ESE,121,7.0,12.0,77,0.00,,,0.00,,2013-02-10 05:11:00,
2013-02-09 23:22:00,38.0,30.0,30.05,SE,135,10.0,18.0,74,0.00,,,0.00,,2013-02-10 05:22:00,
2013-02-09 23:31:00,38.0,30.0,30.05,SE,135,10.0,18.0,74,0.00,,,0.00,,2013-02-10 05:31:00,
2013-02-09 23:42:00,38.0,30.0,30.05,SE,135,10.0,18.0,74,0.00,,,0.00,,2013-02-10 05:42:00,
2013-02-09 23:52:00,38.0,30.0,30.06,ESE,114,5.0,13.0,74,0.00,,,0.00,,2013-02-10 05:52:00,